Spencer, IA

4:13 AM CDT on August 24, 2017 (GMT -0500)
Spencer Municipal

Weather History for KSPW - June, 2013

Change the Weather History Date:

Monday, June 10, 2013

  Actual Average Record
Temperature  
Mean Temperature 68 °F -  
Max Temperature 75 °F 80 °F 98 °F (1977)
Min Temperature 60 °F 55 °F 44 °F (1988)
Cooling Degree Days 2    
Growing Degree Days 18 (Base 50)    
Moisture  
Dew Point 60 °F    
Average Humidity 84    
Maximum Humidity 96    
Minimum Humidity 64    
Precipitation  
Precipitation 0.00 in - - ()
Sea Level Pressure  
Sea Level Pressure 29.85 in    
Wind  
Wind Speed 7 mph (WNW)    
Max Wind Speed 10 mph    
Max Gust Speed -    
Visibility 6 miles    
Events      
Averages and records for this station are not official NWS values.
T = Trace of Precipitation, MM = Missing Value Source: NWS Daily Summary

Daily Weather History Graph

Daily Weather History Graph

Search for Another Location

Airport or City:

Trip Planner

Search our weather history database for the weather conditions in past years. The results will help you decide how hot, cold, wet, or windy it might be!

Date:

Astronomy

Jun. 10, 2013 Rise Set
Actual Time 5:40 AM CDT 9:00 PM CDT
Civil Twilight 5:05 AM CDT 9:35 PM CDT
Nautical Twilight 4:19 AM CDT 10:21 PM CDT
Astronomical Twilight 3:23 AM CDT 11:17 PM CDT
Moon 7:32 AM CDT (6/10) 10:24 PM CDT (6/10)
Length of Visible Light 16h 29m
Length of Day
15h 19m
Waxing Crescent, 4% of the Moon is Illuminated
Jun 10
Waxing Crescent
Jun 16
First Quarter
Jun 23
Full
Jun 29
Last Quarter
Jul 8
New

Hourly Weather History & Observations

Time (CDT) Temp. Dew Point Humidity Pressure Visibility Wind Dir Wind Speed Gust Speed Precip Events Conditions
12:41 AM 62.6 °F 60.8 °F 94% 29.82 in 3.0 mi NW 8.1 mph - N/A   Mostly Cloudy
12:53 AM 62.1 °F 60.1 °F 93% 29.82 in 3.0 mi NW 8.1 mph - N/A   Mostly Cloudy
1:53 AM 63.0 °F 61.0 °F 93% 29.81 in 4.0 mi North 9.2 mph - N/A   Overcast
2:53 AM 63.0 °F 60.1 °F 90% 29.81 in 4.0 mi North 9.2 mph - N/A   Overcast
3:38 AM 62.6 °F 60.8 °F 94% 29.83 in 2.5 mi NNW 9.2 mph - N/A   Overcast
3:53 AM 61.0 °F 59.0 °F 93% 29.82 in 3.0 mi NNW 10.4 mph - N/A   Overcast
4:53 AM 60.1 °F 57.9 °F 93% 29.82 in 3.0 mi North 6.9 mph - N/A   Overcast
5:26 AM 60.8 °F 57.2 °F 88% 29.83 in 2.5 mi North 8.1 mph - N/A   Overcast
5:53 AM 60.1 °F 57.9 °F 93% 29.83 in 2.0 mi NNE 5.8 mph - N/A   Overcast
6:07 AM 60.8 °F 57.2 °F 88% 29.84 in 1.5 mi NNE 5.8 mph - N/A   Overcast
6:53 AM 60.1 °F 59.0 °F 96% 29.83 in 1.0 mi ENE 3.5 mph - N/A   Overcast
7:53 AM 60.1 °F 59.0 °F 96% 29.86 in 1.5 mi WNW 3.5 mph - N/A   Overcast
8:29 AM 60.8 °F 57.2 °F 88% 29.89 in 2.5 mi WNW 5.8 mph - N/A   Overcast
8:53 AM 60.1 °F 57.9 °F 93% 29.88 in 3.0 mi WNW 6.9 mph - N/A   Overcast
9:05 AM 60.8 °F 57.2 °F 88% 29.90 in 2.5 mi WNW 9.2 mph - N/A   Overcast
9:14 AM 60.8 °F 57.2 °F 88% 29.90 in 4.0 mi WNW 8.1 mph - N/A   Overcast
9:39 AM 60.8 °F 59.0 °F 94% 29.90 in 6.0 mi WNW 5.8 mph - N/A   Overcast
9:53 AM 61.0 °F 57.9 °F 90% 29.89 in 6.0 mi WNW 5.8 mph - N/A   Overcast
10:53 AM 62.1 °F 59.0 °F 90% 29.88 in 7.0 mi NW 3.5 mph - N/A   Overcast
11:39 AM 62.6 °F 57.2 °F 82% 29.89 in 8.0 mi Calm Calm - N/A   Overcast
11:53 AM 64.9 °F 57.9 °F 78% 29.88 in 10.0 mi Calm Calm - N/A   Overcast
12:53 PM 66.9 °F 59.0 °F 76% 29.88 in 10.0 mi SSE 5.8 mph - N/A   Overcast
1:23 PM 68.0 °F 60.8 °F 78% 29.88 in 10.0 mi Variable 5.8 mph - N/A   Overcast
1:53 PM 68.0 °F 60.1 °F 76% 29.87 in 10.0 mi South 4.6 mph - N/A   Scattered Clouds
2:14 PM 69.8 °F 60.8 °F 73% 29.88 in 10.0 mi SSE 6.9 mph - N/A   Mostly Cloudy
2:53 PM 70.0 °F 61.0 °F 73% 29.86 in 10.0 mi South 5.8 mph - N/A   Mostly Cloudy
3:05 PM 71.6 °F 62.6 °F 73% 29.87 in 10.0 mi South 9.2 mph - N/A   Partly Cloudy
3:53 PM 72.0 °F 61.0 °F 68% 29.85 in 10.0 mi SSW 5.8 mph - N/A   Partly Cloudy
4:53 PM 73.9 °F 62.1 °F 66% 29.83 in 10.0 mi SSE 9.2 mph - N/A   Clear
5:53 PM 75.0 °F 62.1 °F 64% 29.83 in 10.0 mi SSE 8.1 mph - N/A   Clear
6:53 PM 73.9 °F 62.1 °F 66% 29.83 in 10.0 mi South 6.9 mph - N/A   Clear
7:53 PM 73.0 °F 62.1 °F 68% 29.82 in 10.0 mi SSE 8.1 mph - N/A   Clear
8:53 PM 68.0 °F 62.1 °F 81% 29.83 in 10.0 mi SE 5.8 mph - N/A   Clear
9:53 PM 64.9 °F 61.0 °F 87% 29.85 in 10.0 mi SE 5.8 mph - N/A   Clear
10:53 PM 64.9 °F 62.1 °F 90% 29.86 in 10.0 mi SSE 6.9 mph - N/A   Clear
11:53 PM 64.0 °F 61.0 °F 90% 29.86 in 10.0 mi SSE 6.9 mph - N/A   Clear